,,,PA_Meas_PMT16A,,PR_Meas_QMR101_102,,RH_Meas_QMH101,,SR_Meas_QMS101,,TA_Meas_QMH101,,GenWind,,GenWind,
date,time,status,PA,status,PR,status,RH,status,SR,status,TA,status,DirAvg,status,SpdAvg,
2011-04-06, 00:00:04,VALID,1004.39,VALID,0,VALID,72.9779,VALID,0,VALID,27.9669,VALID,180,VALID,0.596875,
2011-04-06, 00:01:04,VALID,1004.37,VALID,0,VALID,72.421,VALID,0,VALID,27.969,VALID,169,VALID,0.591016,
2011-04-06, 00:02:04,VALID,1004.34,VALID,0,VALID,72.0853,VALID,0,VALID,27.969,VALID,219,VALID,0.939844,
2011-04-06, 00:03:04,VALID,1004.31,VALID,0,VALID,71.7878,VALID,0,VALID,27.9885,VALID,183,VALID,0.610547,
2011-04-06, 00:04:04,VALID,1004.32,VALID,0,VALID,72.154,VALID,0,VALID,28.008,VALID,232,VALID,0.685938,
2011-04-06, 00:05:04,VALID,1004.27,VALID,0,VALID,72.4515,VALID,0,VALID,28.008,VALID,259,VALID,0.358594,
2011-04-06, 00:06:04,VALID,1004.26,VALID,0,VALID,72.7185,VALID,0,VALID,27.9885,VALID,207,VALID,0.469141,
2011-04-06, 00:07:04,VALID,1004.25,VALID,0,VALID,73.1457,VALID,0,VALID,27.9864,VALID,225,VALID,0.631641,
2011-04-06, 00:08:04,VALID,1004.24,VALID,0,VALID,73.0084,VALID,0,VALID,27.9885,VALID,260,VALID,0.584766,
2011-04-06, 00:09:04,VALID,1004.23,VALID,0,VALID,73.3441,VALID,0,VALID,27.9474,VALID,249,VALID,0.742578,
2011-04-06, 00:10:04,VALID,1004.21,VALID,0,VALID,72.6422,VALID,0,VALID,27.9495,VALID,239,VALID,0.861328,
2011-04-06, 00:11:04,VALID,1004.19,VALID,0,VALID,72.4973,VALID,0.100563,VALID,27.9495,VALID,268,VALID,0.811328,
2011-04-06, 00:12:04,VALID,1004.15,VALID,0,VALID,72.6117,VALID,0,VALID,27.9495,VALID,231,VALID,0.905078,
2011-04-06, 00:13:04,VALID,1004.15,VALID,0,VALID,72.1234,VALID,0,VALID,27.9084,VALID,137,VALID,0.815234,
2011-04-06, 00:14:04,VALID,1004.19,VALID,0,VALID,72.1845,VALID,0,VALID,27.8521,VALID,198,VALID,0.708984,
2011-04-06, 00:15:04,VALID,1004.18,VALID,0,VALID,71.8564,VALID,0,VALID,27.8716,VALID,257,VALID,0.701172,
2011-04-06, 00:16:04,VALID,1004.15,VALID,0,VALID,71.269,VALID,0,VALID,27.8932,VALID,230,VALID,0.967578,
2011-04-06, 00:17:04,VALID,1004.17,VALID,0,VALID,71.8564,VALID,0,VALID,27.9127,VALID,248,VALID,0.407422,
2011-04-06, 00:18:04,VALID,1004.15,VALID,0,VALID,71.4216,VALID,0,VALID,27.8716,VALID,323,VALID,0.203125,
2011-04-06, 00:19:04,VALID,1004.14,VALID,0,VALID,71.9709,VALID,0,VALID,27.8521,VALID,218,VALID,0.709766,
2011-04-06, 00:20:04,VALID,1004.17,VALID,0,VALID,72.5583,VALID,0,VALID,27.8521,VALID,218,VALID,0.204688,
2011-04-06, 00:21:04,VALID,1004.16,VALID,0,VALID,72.7566,VALID,0,VALID,27.7936,VALID,241,VALID,1.36211,
2011-04-06, 00:22:04,VALID,1004.17,VALID,0,VALID,73.0389,VALID,0,VALID,27.8131,VALID,227,VALID,1.06133,
2011-04-06, 00:23:04,VALID,1004.17,VALID,0,VALID,73.1076,VALID,0,VALID,27.8563,VALID,219,VALID,0.5875,
2011-04-06, 00:24:04,VALID,1004.17,VALID,0,VALID,72.8253,VALID,0,VALID,27.8326,VALID,253,VALID,1.15781,
2011-04-06, 00:25:04,VALID,1004.18,VALID,0,VALID,72.7261,VALID,0,VALID,27.8347,VALID,245,VALID,1.29648,
2011-04-06, 00:26:04,VALID,1004.16,VALID,0,VALID,72.4667,VALID,0,VALID,27.8542,VALID,240,VALID,1.33281,
2011-04-06, 00:27:04,VALID,1004.15,VALID,0,VALID,72.4438,VALID,0,VALID,27.8737,VALID,239,VALID,2.11719,
2011-04-06, 00:28:04,VALID,1004.11,VALID,0,VALID,72.7032,VALID,0,VALID,27.9127,VALID,220,VALID,1.32266,
2011-04-06, 00:29:04,VALID,1004.18,VALID,0,VALID,72.3828,VALID,0,VALID,27.93,VALID,253,VALID,1.18633,
2011-04-06, 00:30:04,VALID,1004.18,VALID,0,VALID,73.1228,VALID,0.100563,VALID,27.9474,VALID,265,VALID,0.732813,
2011-04-06, 00:31:04,VALID,1004.16,VALID,0,VALID,72.5812,VALID,0,VALID,27.9279,VALID,228,VALID,0.737109,
2011-04-06, 00:32:04,VALID,1004.17,VALID,0,VALID,72.8177,VALID,0.100563,VALID,27.9084,VALID,235,VALID,0.597656,
2011-04-06, 00:33:04,VALID,1004.16,VALID,0,VALID,73.5424,VALID,0,VALID,27.8911,VALID,93,VALID,0.402734,
2011-04-06, 00:34:04,VALID,1004.15,VALID,0,VALID,73.5958,VALID,0,VALID,27.8305,VALID,339,VALID,0.697656,
2011-04-06, 00:35:04,VALID,1004.18,VALID,0,VALID,73.5577,VALID,0,VALID,27.811,VALID,299,VALID,1.13555,
2011-04-06, 00:36:04,VALID,1004.18,VALID,0,VALID,73.6416,VALID,0,VALID,27.811,VALID,254,VALID,1.14219,
2011-04-06, 00:37:04,VALID,1004.2,VALID,0,VALID,73.5272,VALID,0,VALID,27.811,VALID,242,VALID,1.02695,
2011-04-06, 00:38:04,VALID,1004.18,VALID,0,VALID,74.3282,VALID,0,VALID,27.8326,VALID,213,VALID,0.397266,
2011-04-06, 00:39:04,VALID,1004.16,VALID,0,VALID,73.4814,VALID,0,VALID,27.8326,VALID,256,VALID,1.02852,
2011-04-06, 00:40:04,VALID,1004.15,VALID,0,VALID,73.695,VALID,0.100563,VALID,27.8305,VALID,245,VALID,1.29805,
2011-04-06, 00:41:04,VALID,1004.14,VALID,0,VALID,73.9086,VALID,0,VALID,27.8521,VALID,252,VALID,0.794531,
2011-04-06, 00:42:04,VALID,1004.15,VALID,0,VALID,74.6333,VALID,0,VALID,27.8716,VALID,247,VALID,0.841406,
2011-04-06, 00:43:04,VALID,1004.12,VALID,0,VALID,73.7636,VALID,0.100563,VALID,27.8694,VALID,250,VALID,1.40937,
2011-04-06, 00:44:04,VALID,1004.11,VALID,0,VALID,73.9925,VALID,0,VALID,27.8911,VALID,59,VALID,0.548437,
2011-04-06, 00:45:04,VALID,1004.1,VALID,0,VALID,73.7789,VALID,0,VALID,27.8716,VALID,235,VALID,0.79375,
2011-04-06, 00:46:04,VALID,1004.06,VALID,0,VALID,73.8399,VALID,0,VALID,27.8716,VALID,291,VALID,0.885938,
2011-04-06, 00:47:04,VALID,1004.08,VALID,0,VALID,73.6034,VALID,0,VALID,27.8521,VALID,228,VALID,0.3625,
2011-04-06, 00:48:04,VALID,1004.06,VALID,0,VALID,73.8094,VALID,0,VALID,27.8521,VALID,263,VALID,0.780469,
2011-04-06, 00:49:04,VALID,1004.04,VALID,0,VALID,74.1222,VALID,0,VALID,27.8521,VALID,232,VALID,0.537891,
2011-04-06, 00:50:04,VALID,1004.05,VALID,0,VALID,74.4502,VALID,0,VALID,27.8326,VALID,212,VALID,1.00625,
2011-04-06, 00:51:04,VALID,1004.01,VALID,0,VALID,74.8546,VALID,0,VALID,27.8521,VALID,225,VALID,0.466406,
2011-04-06, 00:52:04,VALID,1004.01,VALID,0,VALID,75.4344,VALID,0,VALID,27.8131,VALID,215,VALID,0.415234,
2011-04-06, 00:53:04,VALID,1004.01,VALID,0,VALID,75.2284,VALID,0,VALID,27.7936,VALID,311,VALID,0.661328,
2011-04-06, 00:54:04,VALID,1003.99,VALID,0,VALID,75.4649,VALID,0,VALID,27.7741,VALID,304,VALID,0.793359,
2011-04-06, 00:55:04,VALID,1004.01,VALID,0,VALID,75.7395,VALID,0,VALID,27.7936,VALID,247,VALID,0.276953,
2011-04-06, 00:56:04,VALID,1004.03,VALID,0,VALID,76.1896,VALID,0,VALID,27.7546,VALID,326,VALID,0.563281,
2011-04-06, 00:57:04,VALID,1004.03,VALID,0,VALID,75.8692,VALID,0,VALID,27.7351,VALID,345,VALID,0.498828,
2011-04-06, 00:58:04,VALID,1004.04,VALID,0,VALID,75.9989,VALID,0,VALID,27.6962,VALID,215,VALID,0.674609,
2011-04-06, 00:59:04,VALID,1004.05,VALID,0,VALID,76.243,VALID,0,VALID,27.6767,VALID,228,VALID,0.723437,
2011-04-06, 01:00:04,VALID,1004.1,VALID,0,VALID,76.2888,VALID,0,VALID,27.6962,VALID,231,VALID,0.162891,
2011-04-06, 01:01:04,VALID,1004.08,VALID,0,VALID,76.1896,VALID,0,VALID,27.6962,VALID,278,VALID,0.866016,
2011-04-06, 01:02:04,VALID,1004.08,VALID,0,VALID,75.8311,VALID,0,VALID,27.6767,VALID,254,VALID,0.832422,
2011-04-06, 01:03:04,VALID,1004.07,VALID,0,VALID,75.9684,VALID,0,VALID,27.6767,VALID,255,VALID,0.470703,
2011-04-06, 01:04:04,VALID,1004.09,VALID,0,VALID,75.7014,VALID,0,VALID,27.6593,VALID,255,VALID,0.710156,
2011-04-06, 01:05:04,VALID,1004.06,VALID,0,VALID,75.0071,VALID,0,VALID,27.6767,VALID,260,VALID,0.860547,
2011-04-06, 01:06:04,VALID,1004.06,VALID,0,VALID,74.3968,VALID,0,VALID,27.7178,VALID,255,VALID,0.932031,
2011-04-06, 01:07:04,VALID,1004.05,VALID,0,VALID,74.9995,VALID,0,VALID,27.7351,VALID,269,VALID,0.404297,
2011-04-06, 01:08:04,VALID,1004.03,VALID,0,VALID,74.641,VALID,0,VALID,27.7157,VALID,318,VALID,1.26445,
2011-04-06, 01:09:04,VALID,1004.04,VALID,0,VALID,74.9995,VALID,0,VALID,27.7157,VALID,203,VALID,0.873828,
2011-04-06, 01:10:04,VALID,1004.01,VALID,0,VALID,74.3892,VALID,0,VALID,27.6746,VALID,276,VALID,0.809375,
2011-04-06, 01:11:04,VALID,1004,VALID,0,VALID,74.7173,VALID,0,VALID,27.6572,VALID,308,VALID,0.963281,
2011-04-06, 01:12:04,VALID,1003.99,VALID,0,VALID,74.9614,VALID,0,VALID,27.6572,VALID,310,VALID,0.461328,
2011-04-06, 01:13:04,VALID,1004,VALID,0,VALID,74.8927,VALID,0,VALID,27.6572,VALID,264,VALID,0.742188,
2011-04-06, 01:14:04,VALID,1004.03,VALID,0,VALID,74.908,VALID,0,VALID,27.6161,VALID,263,VALID,0.5125,
2011-04-06, 01:15:04,VALID,1003.98,VALID,0,VALID,75.4573,VALID,0.100563,VALID,27.6161,VALID,264,VALID,0.0726563,
2011-04-06, 01:16:04,VALID,1003.97,VALID,0,VALID,74.8622,VALID,0,VALID,27.5577,VALID,291,VALID,1.12266,
2011-04-06, 01:17:04,VALID,1003.94,VALID,0,VALID,74.4121,VALID,0,VALID,27.5772,VALID,298,VALID,0.45625,
2011-04-06, 01:18:04,VALID,1003.95,VALID,0,VALID,74.2748,VALID,0.100563,VALID,27.6161,VALID,292,VALID,0.496094,
2011-04-06, 01:19:04,VALID,1003.92,VALID,0,VALID,74.2748,VALID,0.100563,VALID,27.6161,VALID,348,VALID,0.419922,
2011-04-06, 01:20:04,VALID,1003.93,VALID,0,VALID,74.0535,VALID,0.100563,VALID,27.6182,VALID,276,VALID,0.903125,
2011-04-06, 01:21:04,VALID,1003.92,VALID,0,VALID,74.6333,VALID,0.100563,VALID,27.5966,VALID,280,VALID,0.440625,
2011-04-06, 01:22:04,VALID,1003.88,VALID,0,VALID,75.4496,VALID,0,VALID,27.5382,VALID,317,VALID,0.196094,
2011-04-06, 01:23:04,VALID,1003.87,VALID,0,VALID,75.1597,VALID,0.100563,VALID,27.4797,VALID,295,VALID,0.840625,
2011-04-06, 01:24:04,VALID,1003.89,VALID,0,VALID,75.7548,VALID,0.100563,VALID,27.4602,VALID,314,VALID,0.380078,
2011-04-06, 01:25:04,VALID,1003.87,VALID,0,VALID,76.1133,VALID,0.100563,VALID,27.4213,VALID,313,VALID,0.262891,
2011-04-06, 01:26:04,VALID,1003.86,VALID,0,VALID,76.3651,VALID,0,VALID,27.3433,VALID,317,VALID,0.520703,
2011-04-06, 01:27:04,VALID,1003.89,VALID,0,VALID,76.8533,VALID,0,VALID,27.2849,VALID,326,VALID,0.392969,
2011-04-06, 01:28:04,VALID,1003.86,VALID,0,VALID,77.0288,VALID,0,VALID,27.2285,VALID,323,VALID,0.394922,
2011-04-06, 01:29:04,VALID,1003.9,VALID,0,VALID,77.1585,VALID,0,VALID,27.17,VALID,331,VALID,0.660547,
2011-04-06, 01:30:04,VALID,1003.89,VALID,0,VALID,77.6544,VALID,0,VALID,27.17,VALID,358,VALID,0.488672,
2011-04-06, 01:31:04,VALID,1003.88,VALID,0,VALID,77.7764,VALID,0,VALID,27.0921,VALID,358,VALID,0.645312,
2011-04-06, 01:32:04,VALID,1003.89,VALID,0,VALID,78.1274,VALID,0,VALID,27.0531,VALID,313,VALID,0.640625,
2011-04-06, 01:33:04,VALID,1003.87,VALID,0,VALID,78.3333,VALID,0,VALID,27.0336,VALID,282,VALID,0.0375,
2011-04-06, 01:34:04,VALID,1003.89,VALID,0,VALID,78.3791,VALID,0,VALID,27.0336,VALID,282,VALID,0.284766,
2011-04-06, 01:35:04,VALID,1003.87,VALID,0,VALID,78.7224,VALID,0,VALID,27.0142,VALID,282,VALID,0.03125,
2011-04-06, 01:36:04,VALID,1003.87,VALID,0,VALID,79.0505,VALID,0,VALID,26.9752,VALID,282,VALID,0.293359,
2011-04-06, 01:37:04,VALID,1003.86,VALID,0,VALID,79.4624,VALID,0,VALID,26.9362,VALID,282,VALID,0.198437,
2011-04-06, 01:38:04,VALID,1003.86,VALID,0,VALID,79.2488,VALID,0,VALID,26.8952,VALID,282,VALID,0.220703,
2011-04-06, 01:39:04,VALID,1003.82,VALID,0,VALID,79.6837,VALID,0,VALID,26.8388,VALID,283,VALID,0.425,
2011-04-06, 01:40:04,VALID,1003.82,VALID,0,VALID,80.4542,VALID,0,VALID,26.7978,VALID,337,VALID,0.560547,
2011-04-06, 01:41:04,VALID,1003.79,VALID,0,VALID,81.4154,VALID,0,VALID,26.7414,VALID,346,VALID,0.672656,
2011-04-06, 01:42:04,VALID,1003.76,VALID,0,VALID,82.2164,VALID,0,VALID,26.644,VALID,353,VALID,0.433984,
2011-04-06, 01:43:04,VALID,1003.78,VALID,0,VALID,83.7727,VALID,0,VALID,26.5466,VALID,352,VALID,0.805469,
2011-04-06, 01:44:04,VALID,1003.77,VALID,0,VALID,84.0169,VALID,0,VALID,26.4687,VALID,343,VALID,0.0769531,
2011-04-06, 01:45:04,VALID,1003.7,VALID,0,VALID,84.2991,VALID,0,VALID,26.3693,VALID,345,VALID,0.472266,
2011-04-06, 01:46:04,VALID,1003.71,VALID,0,VALID,84.6501,VALID,0,VALID,26.3323,VALID,339,VALID,0.568359,
2011-04-06, 01:47:04,VALID,1003.68,VALID,0,VALID,84.5814,VALID,0,VALID,26.3323,VALID,309,VALID,0.242188,
2011-04-06, 01:48:04,VALID,1003.67,VALID,0,VALID,84.0703,VALID,0,VALID,26.3108,VALID,311,VALID,0.511328,
2011-04-06, 01:49:04,VALID,1003.68,VALID,0,VALID,84.0703,VALID,0,VALID,26.3518,VALID,333,VALID,0.612891,
2011-04-06, 01:50:04,VALID,1003.66,VALID,0,VALID,84.2991,VALID,0,VALID,26.3907,VALID,334,VALID,0.505859,
2011-04-06, 01:51:04,VALID,1003.66,VALID,0,VALID,84.3068,VALID,0,VALID,26.3907,VALID,335,VALID,0.253125,
2011-04-06, 01:52:04,VALID,1003.64,VALID,0,VALID,83.9253,VALID,0,VALID,26.3907,VALID,320,VALID,0.391016,
2011-04-06, 01:53:04,VALID,1003.65,VALID,0,VALID,83.8185,VALID,0,VALID,26.4297,VALID,327,VALID,0.396875,
2011-04-06, 01:54:04,VALID,1003.62,VALID,0,VALID,83.8109,VALID,0,VALID,26.4492,VALID,327,VALID,0.408594,
2011-04-06, 01:55:04,VALID,1003.63,VALID,0,VALID,84.0321,VALID,0,VALID,26.4472,VALID,344,VALID,0.267578,
2011-04-06, 01:56:04,VALID,1003.63,VALID,0,VALID,84.0321,VALID,0,VALID,26.4472,VALID,346,VALID,0.667969,
2011-04-06, 01:57:04,VALID,1003.6,VALID,0,VALID,83.9406,VALID,0,VALID,26.4881,VALID,349,VALID,0.294141,
2011-04-06, 01:58:04,VALID,1003.61,VALID,0,VALID,84.3144,VALID,0,VALID,26.4667,VALID,351,VALID,0.482812,
2011-04-06, 01:59:04,VALID,1003.61,VALID,0,VALID,84.6501,VALID,0,VALID,26.4687,VALID,358,VALID,0.414063,
2011-04-06, 02:00:04,VALID,1003.6,VALID,0,VALID,84.2,VALID,0.100563,VALID,26.4687,VALID,307,VALID,0.201562,
2011-04-06, 02:01:04,VALID,1003.59,VALID,0,VALID,84.6043,VALID,0,VALID,26.4492,VALID,307,VALID,0.00117188,
2011-04-06, 02:02:04,VALID,1003.56,VALID,0,VALID,84.0016,VALID,0,VALID,26.4082,VALID,321,VALID,0.319922,
2011-04-06, 02:03:04,VALID,1003.56,VALID,0,VALID,85.0162,VALID,0,VALID,26.4492,VALID,339,VALID,0.329297,
2011-04-06, 02:04:04,VALID,1003.55,VALID,0,VALID,86.1682,VALID,0,VALID,26.4297,VALID,339,VALID,0.244922,
2011-04-06, 02:05:04,VALID,1003.54,VALID,0,VALID,86.2292,VALID,0,VALID,26.3518,VALID,339,VALID,0.230859,
2011-04-06, 02:06:04,VALID,1003.52,VALID,0,VALID,85.6342,VALID,0,VALID,26.2933,VALID,339,VALID,0,
2011-04-06, 02:07:04,VALID,1003.52,VALID,0,VALID,85.9699,VALID,0,VALID,26.2739,VALID,339,VALID,0,
2011-04-06, 02:08:04,VALID,1003.5,VALID,0,VALID,86.9998,VALID,0,VALID,26.2544,VALID,339,VALID,0.0441406,
2011-04-06, 02:09:04,VALID,1003.53,VALID,0,VALID,87.9686,VALID,0,VALID,26.1959,VALID,339,VALID,0.229687,
2011-04-06, 02:10:04,VALID,1003.52,VALID,0,VALID,89.5936,VALID,0,VALID,26.116,VALID,341,VALID,0.525391,
2011-04-06, 02:11:04,VALID,1003.51,VALID,0,VALID,93.5453,VALID,0,VALID,26.0187,VALID,350,VALID,0.580078,
2011-04-06, 02:12:04,VALID,1003.49,VALID,0,VALID,98.2371,VALID,0,VALID,25.9213,VALID,351,VALID,0.542969,
2011-04-06, 02:13:04,VALID,1003.45,VALID,0,VALID,97.9243,VALID,0,VALID,25.8453,VALID,351,VALID,0.589844,
2011-04-06, 02:14:04,VALID,1003.44,VALID,0,VALID,101.106,VALID,0.100563,VALID,25.7655,VALID,346,VALID,0.319922,
2011-04-06, 02:15:04,VALID,1003.41,VALID,0,VALID,98.6185,VALID,0,VALID,25.7071,VALID,303,VALID,0.504297,
2011-04-06, 02:16:04,VALID,1003.42,VALID,0,VALID,100.785,VALID,0,VALID,25.7265,VALID,332,VALID,0.466016,
2011-04-06, 02:17:04,VALID,1003.38,VALID,0,VALID,97.4208,VALID,0,VALID,25.7071,VALID,334,VALID,0.605078,
2011-04-06, 02:18:04,VALID,1003.4,VALID,0,VALID,98.6948,VALID,0,VALID,25.7265,VALID,338,VALID,0.575,
2011-04-06, 02:19:04,VALID,1003.41,VALID,0,VALID,97.5734,VALID,0,VALID,25.7071,VALID,331,VALID,0.250391,
2011-04-06, 02:20:04,VALID,1003.38,VALID,0,VALID,97.2759,VALID,0,VALID,25.7285,VALID,331,VALID,0.0652344,
2011-04-06, 02:21:04,VALID,1003.36,VALID,0,VALID,94.1175,VALID,0,VALID,25.748,VALID,354,VALID,0.466016,
2011-04-06, 02:22:04,VALID,1003.35,VALID,0,VALID,94.0488,VALID,0,VALID,25.7869,VALID,354,VALID,0.00546875,
2011-04-06, 02:23:04,VALID,1003.35,VALID,0,VALID,92.2179,VALID,0,VALID,25.7869,VALID,354,VALID,0.113281,
2011-04-06, 02:24:04,VALID,1003.36,VALID,0,VALID,92.8511,VALID,0,VALID,25.7869,VALID,354,VALID,0.00351562,
2011-04-06, 02:25:04,VALID,1003.34,VALID,0,VALID,92.3552,VALID,0,VALID,25.8064,VALID,353,VALID,0.480078,
2011-04-06, 02:26:04,VALID,1003.34,VALID,0,VALID,91.8365,VALID,0,VALID,25.8044,VALID,354,VALID,0.673047,
2011-04-06, 02:27:04,VALID,1003.35,VALID,0,VALID,91.0812,VALID,0,VALID,25.8239,VALID,351,VALID,0.713672,
2011-04-06, 02:28:04,VALID,1003.34,VALID,0,VALID,90.9134,VALID,0.100563,VALID,25.8434,VALID,353,VALID,0.597656,
2011-04-06, 02:29:04,VALID,1003.37,VALID,0,VALID,89.4486,VALID,0,VALID,25.8823,VALID,353,VALID,0.610937,
2011-04-06, 02:30:04,VALID,1003.34,VALID,0,VALID,89.7614,VALID,0,VALID,25.9213,VALID,352,VALID,0.335938,
2011-04-06, 02:31:04,VALID,1003.37,VALID,0,VALID,89.4334,VALID,0,VALID,25.9817,VALID,354,VALID,0.876172,
2011-04-06, 02:32:04,VALID,1003.36,VALID,0,VALID,93.3928,VALID,0,VALID,25.9817,VALID,349,VALID,0.555078,
2011-04-06, 02:33:04,VALID,1003.36,VALID,0,VALID,90.0818,VALID,0,VALID,25.9213,VALID,349,VALID,0.58125,
2011-04-06, 02:34:04,VALID,1003.4,VALID,0,VALID,91.249,VALID,0,VALID,25.9213,VALID,344,VALID,0.4125,
2011-04-06, 02:35:04,VALID,1003.36,VALID,0,VALID,93.3165,VALID,0.100563,VALID,25.9213,VALID,348,VALID,0.403516,
2011-04-06, 02:36:04,VALID,1003.35,VALID,0,VALID,93.1868,VALID,0.100563,VALID,25.9018,VALID,348,VALID,0.4875,
2011-04-06, 02:37:04,VALID,1003.35,VALID,0,VALID,98.382,VALID,0.100563,VALID,25.8629,VALID,350,VALID,0.516797,
2011-04-06, 02:38:04,VALID,1003.34,VALID,0,INVALID,111.809,VALID,0,VALID,25.8064,VALID,350,VALID,0.652734,
2011-04-06, 02:39:04,VALID,1003.33,VALID,0,VALID,104,VALID,0.100563,VALID,25.746,VALID,345,VALID,0.582031,
2011-04-06, 02:40:04,VALID,1003.31,VALID,0,VALID,104,VALID,0,VALID,25.6876,VALID,347,VALID,0.668359,
2011-04-06, 02:41:04,VALID,1003.33,VALID,0,INVALID,111.153,VALID,0,VALID,25.6486,VALID,344,VALID,0.387891,
2011-04-06, 02:42:04,VALID,1003.36,VALID,0,INVALID,123.222,VALID,0,VALID,25.6506,VALID,344,VALID,0.258984,
2011-04-06, 02:43:04,VALID,1003.34,VALID,0,INVALID,112.312,VALID,0,VALID,25.6506,VALID,344,VALID,0.0226563,
2011-04-06, 02:44:04,VALID,1003.37,VALID,0,VALID,104,VALID,0.100563,VALID,25.6292,VALID,342,VALID,0.477734,
2011-04-06, 02:45:04,VALID,1003.35,VALID,0,VALID,103.943,VALID,0,VALID,25.6486,VALID,341,VALID,0.0570313,
2011-04-06, 02:46:04,VALID,1003.4,VALID,0,VALID,103.799,VALID,0.100563,VALID,25.6681,VALID,341,VALID,0.246094,
2011-04-06, 02:47:04,VALID,1003.4,VALID,0,VALID,100.076,VALID,0,VALID,25.6681,VALID,337,VALID,0.345703,
2011-04-06, 02:48:04,VALID,1003.4,VALID,0,VALID,94.5523,VALID,0.100563,VALID,25.7071,VALID,289,VALID,0.434375,
2011-04-06, 02:49:04,VALID,1003.4,VALID,0,VALID,94.8575,VALID,0.100563,VALID,25.7655,VALID,289,VALID,0.158594,
2011-04-06, 02:50:04,VALID,1003.43,VALID,0,VALID,92.4468,VALID,0,VALID,25.8044,VALID,348,VALID,0.561719,
2011-04-06, 02:51:04,VALID,1003.4,VALID,0,VALID,90.2039,VALID,0.100563,VALID,25.8823,VALID,350,VALID,0.725391,
2011-04-06, 02:52:04,VALID,1003.44,VALID,0,VALID,89.3494,VALID,0.100563,VALID,25.9992,VALID,345,VALID,0.728516,
2011-04-06, 02:53:04,VALID,1003.41,VALID,0,VALID,89.2579,VALID,0.100563,VALID,26.0771,VALID,340,VALID,0.459375,
2011-04-06, 02:54:04,VALID,1003.41,VALID,0,VALID,88.9375,VALID,0,VALID,26.116,VALID,338,VALID,0.362891,
2011-04-06, 02:55:04,VALID,1003.41,VALID,0,VALID,87.7932,VALID,0.100563,VALID,26.1335,VALID,341,VALID,0.448438,
2011-04-06, 02:56:04,VALID,1003.42,VALID,0,VALID,87.343,VALID,0,VALID,26.194,VALID,334,VALID,0.503125,
2011-04-06, 02:57:04,VALID,1003.43,VALID,0,VALID,87.3507,VALID,0.100563,VALID,26.2524,VALID,348,VALID,0.221875,
2011-04-06, 02:58:04,VALID,1003.43,VALID,0,VALID,87.2591,VALID,0,VALID,26.2524,VALID,348,VALID,0,
2011-04-06, 02:59:04,VALID,1003.43,VALID,0,VALID,87.3965,VALID,0.100563,VALID,26.2524,VALID,348,VALID,0.245703,
2011-04-06, 03:00:04,VALID,1003.46,VALID,0,VALID,86.8777,VALID,0.100563,VALID,26.2524,VALID,340,VALID,0.282031,
2011-04-06, 03:01:04,VALID,1003.46,VALID,0,VALID,87.694,VALID,0,VALID,26.2329,VALID,339,VALID,0.0460938,
2011-04-06, 03:02:04,VALID,1003.45,VALID,0,VALID,87.8771,VALID,0,VALID,26.2329,VALID,341,VALID,0.642187,
2011-04-06, 03:03:04,VALID,1003.48,VALID,0,VALID,87.7398,VALID,0.100563,VALID,26.2544,VALID,342,VALID,0.333594,
2011-04-06, 03:04:04,VALID,1003.47,VALID,0,VALID,88.4035,VALID,0.100563,VALID,26.2349,VALID,346,VALID,0.525781,
2011-04-06, 03:05:04,VALID,1003.52,VALID,0,VALID,88.6094,VALID,0.100563,VALID,26.1745,VALID,344,VALID,0.411328,
2011-04-06, 03:06:04,VALID,1003.53,VALID,0,VALID,90.3259,VALID,0.100563,VALID,26.155,VALID,342,VALID,0.319141,
2011-04-06, 03:07:04,VALID,1003.54,VALID,0,VALID,91.1422,VALID,0.100563,VALID,26.0966,VALID,344,VALID,0.446484,
2011-04-06, 03:08:04,VALID,1003.56,VALID,0,VALID,95.9789,VALID,0,VALID,26.0381,VALID,344,VALID,0.475,
2011-04-06, 03:09:04,VALID,1003.56,VALID,0,VALID,102.517,VALID,0,VALID,25.9622,VALID,344,VALID,0.336719,
2011-04-06, 03:10:04,VALID,1003.57,VALID,0,VALID,101.441,VALID,0.100563,VALID,25.8629,VALID,344,VALID,0.231641,
2011-04-06, 03:11:04,VALID,1003.53,VALID,0,INVALID,116.47,VALID,0,VALID,25.8044,VALID,344,VALID,0.274219,
2011-04-06, 03:12:04,VALID,1003.55,VALID,0,INVALID,127.501,VALID,0,VALID,25.746,VALID,344,VALID,0.317578,
2011-04-06, 03:13:04,VALID,1003.53,VALID,0,INVALID,163.54,VALID,0.100563,VALID,25.6681,VALID,344,VALID,0.462891,
2011-04-06, 03:14:04,VALID,1003.57,VALID,0,INVALID,163.571,VALID,0.100563,VALID,25.5902,VALID,344,VALID,0.286328,
2011-04-06, 03:15:04,VALID,1003.54,VALID,0,INVALID,163.586,VALID,0.100563,VALID,25.5513,VALID,344,VALID,0.0242187,
2011-04-06, 03:16:04,VALID,1003.54,VALID,0,INVALID,163.563,VALID,0,VALID,25.5513,VALID,344,VALID,0.260547,
2011-04-06, 03:17:04,VALID,1003.53,VALID,0,INVALID,163.609,VALID,0.100563,VALID,25.5123,VALID,344,VALID,0.0492188,
2011-04-06, 03:18:04,VALID,1003.54,VALID,0,INVALID,163.594,VALID,0.100563,VALID,25.4928,VALID,344,VALID,0,
2011-04-06, 03:19:04,VALID,1003.51,VALID,0,INVALID,163.617,VALID,0.100563,VALID,25.4734,VALID,344,VALID,0,
2011-04-06, 03:20:04,VALID,1003.51,VALID,0,INVALID,163.609,VALID,0.100563,VALID,25.4734,VALID,344,VALID,0.352734,
2011-04-06, 03:21:04,VALID,1003.51,VALID,0,INVALID,163.601,VALID,0.100563,VALID,25.4344,VALID,344,VALID,0.186328,
2011-04-06, 03:22:04,VALID,1003.49,VALID,0,INVALID,163.609,VALID,0.100563,VALID,25.3955,VALID,344,VALID,0,
2011-04-06, 03:23:04,VALID,1003.53,VALID,0,INVALID,163.609,VALID,0.100563,VALID,25.3741,VALID,344,VALID,0.00859375,
2011-04-06, 03:24:04,VALID,1003.53,VALID,0,INVALID,163.617,VALID,0.100563,VALID,25.3955,VALID,344,VALID,0,
2011-04-06, 03:25:04,VALID,1003.56,VALID,0,INVALID,163.609,VALID,0.100563,VALID,25.4169,VALID,344,VALID,0.113672,
2011-04-06, 03:26:04,VALID,1003.54,VALID,0,INVALID,163.632,VALID,0.100563,VALID,25.376,VALID,344,VALID,0.353516,
2011-04-06, 03:27:04,VALID,1003.57,VALID,0,INVALID,163.632,VALID,0.100563,VALID,25.3565,VALID,344,VALID,0.432031,
2011-04-06, 03:28:04,VALID,1003.57,VALID,0,INVALID,163.617,VALID,0.100563,VALID,25.2981,VALID,344,VALID,0.418359,
2011-04-06, 03:29:04,VALID,1003.57,VALID,0,INVALID,163.609,VALID,0.100563,VALID,25.2397,VALID,344,VALID,0.494922,
2011-04-06, 03:30:04,VALID,1003.62,VALID,0,INVALID,163.647,VALID,0.100563,VALID,25.1618,VALID,344,VALID,0.485547,
2011-04-06, 03:31:04,VALID,1003.62,VALID,0,INVALID,163.624,VALID,0.100563,VALID,25.1229,VALID,344,VALID,0.450781,
2011-04-06, 03:32:04,VALID,1003.58,VALID,0,INVALID,163.624,VALID,0.100563,VALID,25.0839,VALID,344,VALID,0.473047,
2011-04-06, 03:33:04,VALID,1003.58,VALID,0,INVALID,163.639,VALID,0.100563,VALID,25.045,VALID,344,VALID,0.451172,
2011-04-06, 03:34:04,VALID,1003.59,VALID,0,INVALID,163.624,VALID,0.100563,VALID,25.006,VALID,344,VALID,0.514453,
2011-04-06, 03:35:04,VALID,1003.59,VALID,0,INVALID,163.67,VALID,0.100563,VALID,24.9671,VALID,343,VALID,0.46875,
2011-04-06, 03:36:04,VALID,1003.57,VALID,0,INVALID,163.624,VALID,0.100563,VALID,24.969,VALID,343,VALID,0.476563,
2011-04-06, 03:37:04,VALID,1003.57,VALID,0,INVALID,163.662,VALID,0.100563,VALID,24.9866,VALID,343,VALID,0.612109,
2011-04-06, 03:38:04,VALID,1003.57,VALID,0,INVALID,163.647,VALID,0.100563,VALID,24.9671,VALID,343,VALID,0.465625,
2011-04-06, 03:39:04,VALID,1003.56,VALID,0,INVALID,163.647,VALID,0.100563,VALID,24.9671,VALID,343,VALID,0.0304688,
2011-04-06, 03:40:04,VALID,1003.54,VALID,0,INVALID,163.655,VALID,0.100563,VALID,24.9866,VALID,343,VALID,0.156641,